Regional Weather Roundup
Issued by NWS Columbia, SC

Home | Current Version | Previous Version | Text Only | Print | Product List | Glossary On
Versions: 1 2 3 4 5 6 7 8 9 10 11 12 13 14 15 16 17 18 19 20 21 22 23 24 25 26 27 28 29 30 31 32 33 34 35 36 37 38 39 40 41 42 43 44 45 46 47 48
000
ASUS42 KCAE 042010
RWRCAE
REGIONAL WEATHER ROUNDUP
NATIONAL WEATHER SERVICE COLUMBIA SC
300 PM EST WED MAR 04 2015

NOTE: "FAIR" INDICATES FEW OR NO CLOUDS BELOW 12,000 FEET WITH NO
SIGNIFICANT WEATHER AND/OR OBSTRUCTIONS TO VISIBILITY.

NOT ALL STATIONS ARE QUALITY CONTROLLED BY THE NATIONAL
WEATHER SERVICE. USE DATA WITH CAUTION...ESPECIALLY
DEWPOINT OBSERVATIONS.

SCZ001>056-GAZ040-063>065-077-042100-
...UPSTATE SOUTH CAROLINA...

CITY           SKY/WX    TMP DP  RH WIND       PRES   REMARKS
ANDERSON       CLOUDY    67  59  75 S10       29.96F
LIBERTY          N/A     69  60  72 MISG      29.94
SPARTANBURG    PTSUNNY   68  61  77 SW14G23   29.94F
CLEMSON        MOSUNNY   69  58  67 SW12G22   29.95F
GREENVILLE     PTSUNNY   67  58  72 SW20G29   29.94F
GREENWOOD      CLOUDY    69  60  73 SW10      29.99F
GREER          CLOUDY    68  59  73 SW17G31   29.92F
ROCK HILL      CLOUDY    66  58  75 SW17G26   29.95F
CHESTER        CLOUDY    66  59  77 SW8G20    29.98F
LAURENS        CLOUDY    63  63 100 SW9       29.98F


...CENTRAL SOUTH CAROLINA...

CITY           SKY/WX    TMP DP  RH WIND       PRES   REMARKS
COLUMBIA APT   MOSUNNY   80  57  45 SW20G32   29.96F
COLUMBIA OWENS MOSUNNY   81  55  40 SW16G29   29.97F
DARLINGTON     MOSUNNY   77  61  57 SW22      29.95F
FLORENCE       PTSUNNY   80  60  50 SW18G25   29.95F
MCENTIRE ANGB  PTSUNNY   83  57  40 SW15G32   29.96F
ORANGEBURG     MOSUNNY   81  56  42 SW22G28   29.97F
SUMTER SHAW    MOSUNNY   80  58  47 SW17G24   29.94
NEWBERRY       MOCLDY    70  61  73 W12G17    29.99F
AIKEN          CLOUDY    77  59  53 SW17G28   30.02F
BARNWELL       FAIR      81  57  44 W18G25    29.98F
MANNING        MOCLDY    81  55  41 SW14G23   29.97F
CAMDEN         FAIR      79  55  44 SW23G30   29.95F
LANCASTER      PTCLDY    68  63  83 W12       29.96F
WINNSBORO      PTCLDY    77  57  50 SW23G29   29.95F


...EASTERN AND COASTAL SOUTH CAROLINA...

CITY           SKY/WX    TMP DP  RH WIND       PRES   REMARKS
MYRTLE BEACH   MOSUNNY   72  61  68 S16       30.01F
N MYRTLE BCH   MOSUNNY   63  57  81 SW22      29.99F
CONWAY         MOCLDY    79  61  53 SW15G23   29.98F HAZE
MARION         MOCLDY    79  61  53 SW17G24   29.97F
HARTSVILLE     FAIR      79  55  44 SW14G25   29.95F
FLORENCE       PTSUNNY   80  60  50 SW18G25   29.95F
DARLINGTON     MOSUNNY   77  61  57 SW22      29.95F
CHARLESTON APT MOSUNNY   79  63  57 SW18G28   30.00F
WALTERBORO     PTCLDY    82  61  47 SW14      29.99F
BEAUFORT       PTSUNNY   78  65  63 S14G24    30.01F


...EASTERN GEORGIA...

CITY           SKY/WX    TMP DP  RH WIND       PRES   REMARKS
AUGUSTA BUSH F MOSUNNY   79  59  50 SW15G24   29.98F
AUGUSTA DANIEL PTSUNNY   78  59  51 SW10G22   29.99F
WASHINGTON     FAIR      77  68  73 SW15      29.97F
CLAXTON        MOCLDY    79  63  57 W9        30.02F
SYLVANIA       PTCLDY    81  61  50 SW8       30.01F
SAVANNAH       PTSUNNY   83  58  42 S17G24    30.02F


...SOUTHERN NORTH CAROLINA...

CITY           SKY/WX    TMP DP  RH WIND       PRES   REMARKS
CHARLOTTE      PTSUNNY   66  56  70 S25G32    29.92F
MONROE         MOSUNNY   67  58  72 SW23G30   29.94F
ROCKINGHAM       N/A     78  56  48 SW18G29   29.93F
ASHEVILLE      PTSUNNY   74  54  49 S17       29.89F

$$


USA.gov is the U.S. government's official web portal to all federal, state and local government web resources and services.